[[{"header":{"parameterUnit":"m.s-1","parameterCategory":1,"la1":30.2991,"la2":30.254,"lo1":-89.0895,"lo2":-89.0444,"dy":0.0017,"dx":0.0017,"nx":28,"ny":28,"refTime":"2025-11-11T09:00:00:Z","depth":0,"parameterNumber":2,"parameterNumberName":"U-component_of_WINDS"},"data":[0,0,0,0,0,0,0,0,0,0,0,0,0,0,0,0,0,0,0,0,0,0,0,0,0,0,0,0,0,0,0,0,0,0,0,0,0,0,0,0,0,0,0,0,0,0,0,0,0,0,0,0,0,0,0,0,0,0,4.078,4.0781,0,4.0864,4.0865,4.0866,4.0811,4.0809,4.0806,4.0804,4.0886,4.089,4.0895,0,0,0,0,0,0,0,0,0,0,0,0,0,4.0567,4.0572,4.078,4.0781,4.0782,4.0864,4.0865,4.0866,4.0812,4.0809,4.0806,4.0803,4.0885,4.089,4.0895,0,0,0,0,0,0,0,0,0,0,0,0,0,4.0656,4.0573,4.078,4.0765,4.0765,4.0863,4.0865,4.0866,4.0812,4.0809,4.0805,4.0801,4.0883,4.0889,4.0896,4.1013,0,0,4.0917,4.092,0,0,0,0,0,0,0,0,4.0651,4.0664,4.0766,4.0766,4.0766,4.0823,4.082,4.0915,4.0813,4.0794,4.0804,4.08,4.0868,4.0876,4.09,4.1017,4.102,4.0917,4.0922,4.0924,4.0926,0,0,0,0,0,0,0,4.0645,4.066,4.0813,4.0768,4.0768,4.0752,4.0761,4.0838,4.0851,4.0796,4.0792,4.0803,4.0867,4.0893,4.0901,4.1022,4.0917,4.0923,4.0927,4.093,4.1232,4.1236,0,0,0,0,0,0,4.0641,4.0655,4.081,4.0816,4.0698,4.0759,4.0769,4.0809,4.085,4.0853,4.0806,4.08,4.0883,4.0893,4.0904,4.1038,4.0924,4.0931,4.0935,4.1228,4.1233,4.1237,0,0,0,0,0,0,4.0637,4.0655,4.0807,4.0735,4.0753,4.0767,4.0812,4.0812,4.0838,4.0858,4.0859,4.083,4.0881,4.0894,4.0985,4.104,4.0934,4.094,4.1223,4.123,4.1235,4.1311,0,0,0,0,0,0,4.0631,4.0654,4.0701,4.0736,4.0757,4.0889,4.0816,4.0817,4.085,4.0843,4.0881,4.0884,4.0879,4.0975,4.0992,4.1048,4.0945,4.1218,4.1226,4.1233,4.1303,4.1319,4.1332,0,0,0,0,0,4.0623,4.0719,4.0703,4.0722,4.0815,4.0892,4.0904,4.0898,4.0855,4.09,4.0912,4.0883,4.1033,4.0985,4.1003,4.1062,4.1215,4.1224,4.1233,4.1297,4.1316,4.1331,0,0,0,0,0,0,4.069,4.0724,4.0706,4.0817,4.0852,4.0883,4.094,4.0919,4.0966,4.0957,4.0946,4.0955,4.1048,4.1065,4.1011,4.1174,4.1117,4.113,4.1159,4.1177,4.1191,4.1183,4.0951,0,0,0,0,0,4.0718,4.0779,4.0805,4.09,4.0918,4.0926,4.096,4.0951,4.0987,4.1001,4.102,4.1055,4.1108,4.1145,4.1196,4.1307,4.1311,4.1356,4.137,4.1382,4.1391,4.1445,4.1463,4.1266,4.1266,4.1266,0,0,4.0775,4.0801,4.0841,4.0914,4.094,4.1,4.0939,4.1008,4.1051,4.1012,4.1097,4.1112,4.1149,4.1249,4.1294,4.1265,4.1447,4.1393,4.1402,4.1405,4.1456,4.1474,4.1491,4.1272,4.1271,4.127,0,0,4.0909,4.0938,4.1017,4.1044,4.1084,4.1088,4.1107,4.1141,4.1149,4.1235,4.1205,4.1256,4.1352,4.1377,4.1403,4.1544,4.1516,4.1561,4.1633,4.1686,4.1701,4.1714,4.1759,4.1776,4.1572,4.1572,4.1572,0,4.0975,4.1067,4.106,4.1129,4.116,4.1127,4.1204,4.1231,4.1286,4.1306,4.1275,4.139,4.1413,4.1515,4.1549,4.1573,4.1591,4.1555,4.17,4.1713,4.1726,4.1768,4.1785,4.1577,4.1576,4.1576,4.1575,0,4.1142,4.1206,4.1265,4.1317,4.1355,4.1429,4.143,4.1469,4.1457,4.1464,4.1548,4.1575,4.1629,4.1653,4.1644,4.1753,4.1733,4.1702,4.1642,4.1749,4.1788,4.1805,4.1584,4.1582,4.158,4.1579,0,0,4.132,4.1366,4.1387,4.1408,4.1449,4.1497,4.1567,4.1619,4.165,4.1689,4.1744,4.1824,4.1793,4.1822,4.1815,4.1861,4.1963,4.1823,4.1823,4.1843,4.2079,4.2099,4.2118,4.1947,4.195,4.1953,4.2074,0,4.1452,4.1574,4.1568,4.1682,4.1737,4.1706,4.1766,4.1796,4.1803,4.185,4.1858,4.1912,4.1871,4.1887,4.1932,4.1941,4.2009,4.1933,4.1994,4.1996,4.198,4.2139,4.2162,4.2275,4.209,4.2092,4.2094,0,4.1622,4.1665,4.1783,4.1811,4.1834,4.1888,4.1933,4.198,4.2011,4.2013,4.2044,4.2028,4.2095,4.2038,4.2127,4.2075,4.21,4.2108,4.2112,4.2113,4.2048,4.214,4.2311,4.2326,4.2119,4.2117,4.2116,0,4.1732,4.182,4.19,4.192,4.1956,4.1994,4.2011,4.2039,4.2069,4.2108,4.2127,4.2174,4.2198,4.2234,4.2229,4.2189,4.2318,4.2262,4.2317,4.2317,4.2342,4.234,4.2515,4.2367,4.2367,4.2367,4.2367,0,4.1877,4.195,4.1949,4.1999,4.2077,4.2069,4.2146,4.2159,4.2183,4.2232,4.2209,4.2255,4.2248,4.2293,4.229,4.2361,4.2374,4.2374,4.2371,4.2373,4.2372,4.2386,4.2376,4.2371,4.237,4.2369,4.2369,0,4.2012,4.2016,4.21,4.2127,4.2135,4.2191,4.2212,4.2257,4.2262,4.2323,4.2337,4.2345,4.2396,4.2396,4.2455,4.2453,4.2538,4.2529,4.2527,4.2523,4.2577,4.257,4.2762,4.2784,4.2628,4.2629,4.263,0,4.2102,4.2156,4.2187,4.2218,4.2236,4.2287,4.2317,4.2311,4.2343,4.2381,4.242,4.2469,4.2507,4.259,4.26,4.2644,4.2632,4.2697,4.2638,4.2637,4.2626,4.2621,4.2624,4.2706,4.2708,4.271,4.2711,0,4.2259,4.2257,4.2302,4.2346,4.2382,4.2417,4.2448,4.2475,4.2471,4.2508,4.256,4.259,4.2648,4.2696,4.2737,4.2752,4.2729,4.273,4.2744,4.2743,4.2737,4.2736,4.2552,4.2724,4.2723,4.2722,4.2721,4.2721,4.237,4.2414,4.2442,4.2491,4.2514,4.2543,4.2585,4.2594,4.2638,4.2685,4.2679,4.2735,4.2761,4.2814,4.2833,4.2875,4.2852,4.2874,4.2879,4.2883,4.2886,4.2735,4.2883,4.2883,4.2883,4.2882,4.2882,0,4.252,4.2536,4.2581,4.2625,4.2662,4.264,4.2673,4.2705,4.2755,4.2782,4.2819,4.2876,4.2922,4.2934,4.2977,4.3008,4.2998,4.3018,4.3013,4.3016,4.2907,4.2888,4.3025,4.3025,4.3025,4.3025,4.3025,4.3025,4.2603,4.2675,4.2676,4.2757,4.2772,4.2827,4.2847,4.2872,4.2893,4.2958,4.2995,4.3003,4.3022,4.3066,4.3105,4.3107,4.3121,4.3145,4.3142,4.3039,4.3024,4.3011,4.2992,4.3149,4.315,4.3247,4.3248,4.3249]},{"header":{"parameterUnit":"m.s-1","parameterCategory":1,"la1":30.2991,"la2":30.254,"lo1":-89.0895,"lo2":-89.0444,"dy":0.0017,"dx":0.0017,"nx":28,"ny":28,"refTime":"2025-11-11T09:00:00:Z","depth":0,"parameterNumber":3,"parameterNumberName":"V-component_of_WINDS"},"data":[0,0,0,0,0,0,0,0,0,0,0,0,0,0,0,0,0,0,0,0,0,0,0,0,0,0,0,0,0,0,0,0,0,0,0,0,0,0,0,0,0,0,0,0,0,0,0,0,0,0,0,0,0,0,0,0,0,0,2.9998,2.9999,0,3.008,3.0081,3.0082,3.0026,3.0023,3.0021,3.0018,3.0103,3.0108,3.0112,0,0,0,0,0,0,0,0,0,0,0,0,0,2.9789,2.9793,2.9998,2.9999,3.0,3.008,3.0081,3.0082,3.0026,3.0023,3.002,3.0017,3.0102,3.0107,3.0113,0,0,0,0,0,0,0,0,0,0,0,0,0,2.9877,2.9795,2.9997,2.9981,2.9981,3.008,3.0081,3.0083,3.0027,3.0023,3.0019,3.0016,3.01,3.0106,3.0113,3.0233,0,0,3.0135,3.0138,0,0,0,0,0,0,0,0,2.9872,2.9884,2.9983,2.9983,2.9982,3.0039,3.0039,3.0133,3.0028,3.0009,3.0018,3.0014,3.0085,3.0093,3.0117,3.0237,3.0241,3.0135,3.0139,3.0142,3.0144,0,0,0,0,0,0,0,2.9866,2.988,3.003,2.9984,2.9984,2.9969,2.9977,3.0056,3.0068,3.0011,3.0007,3.0017,3.0084,3.011,3.0118,3.0242,3.0135,3.0141,3.0146,3.0148,3.046,3.0464,0,0,0,0,0,0,2.9861,2.9876,3.0028,3.0033,2.9916,2.9976,2.9985,3.0024,3.0067,3.0069,3.002,3.0014,3.01,3.011,3.0121,3.0261,3.0142,3.0149,3.0153,3.0456,3.0461,3.0465,0,0,0,0,0,0,2.9857,2.9875,3.0024,2.9953,2.9971,2.9984,3.0028,3.0028,3.0054,3.0074,3.0076,3.0045,3.0097,3.0111,3.0205,3.0263,3.0152,3.0158,3.0451,3.0457,3.0463,3.0543,0,0,0,0,0,0,2.9851,2.9874,2.9921,2.9955,2.9975,3.0108,3.0032,3.0032,3.0066,3.0059,3.0098,3.01,3.0095,3.0194,3.0211,3.027,3.0164,3.0446,3.0454,3.0461,3.0535,3.0551,3.0565,0,0,0,0,0,2.9844,2.9941,2.9923,2.9942,3.0033,3.0111,3.0123,3.0115,3.0071,3.0117,3.0129,3.0099,3.0254,3.0205,3.0223,3.0285,3.0442,3.0452,3.046,3.0529,3.0548,3.0565,0,0,0,0,0,0,2.9915,2.9945,2.9926,3.0037,3.0072,3.0101,3.0159,3.0137,3.0185,3.0176,3.0164,3.0174,3.027,3.0287,3.0232,3.0401,3.0341,3.0354,3.0386,3.0405,3.042,3.0413,3.017,0,0,0,0,0,2.9943,3.0004,3.0027,3.0123,3.0141,3.0147,3.0181,3.0172,3.0207,3.0222,3.0241,3.0276,3.0332,3.037,3.0423,3.0538,3.0543,3.0589,3.0604,3.0616,3.0627,3.0685,3.0705,3.0496,3.0495,3.0495,0,0,3.0002,3.0026,3.0066,3.0137,3.0163,3.0225,3.016,3.023,3.0275,3.0233,3.0321,3.0336,3.0374,3.0478,3.0524,3.0495,3.0686,3.0628,3.0637,3.0642,3.0697,3.0716,3.0734,3.0502,3.0501,3.05,0,0,3.0141,3.0167,3.0248,3.0274,3.0313,3.0316,3.0336,3.0369,3.0376,3.0465,3.0433,3.0487,3.0585,3.0612,3.0639,3.0785,3.0758,3.0803,3.088,3.0936,3.0953,3.0967,3.1016,3.1034,3.0814,3.0815,3.0815,0,3.021,3.0303,3.0292,3.0363,3.0394,3.0357,3.0437,3.0463,3.0519,3.054,3.0506,3.0626,3.065,3.0757,3.0792,3.0816,3.0836,3.0798,3.0951,3.0966,3.0979,3.1026,3.1044,3.0819,3.0819,3.0818,3.0818,0,3.0384,3.0448,3.0508,3.056,3.0598,3.0674,3.0673,3.0713,3.0699,3.0705,3.0794,3.0821,3.0877,3.0902,3.0891,3.1007,3.0987,3.0953,3.0892,3.1004,3.1047,3.1066,3.0827,3.0825,3.0823,3.0822,0,0,3.0571,3.0614,3.0636,3.0657,3.0697,3.0746,3.0818,3.0872,3.0905,3.0943,3.1002,3.1084,3.1051,3.1082,3.1073,3.1123,3.1232,3.1082,3.1082,3.1107,3.1358,3.1382,3.1403,3.1215,3.1218,3.1221,3.1354,0,3.071,3.0835,3.0826,3.0944,3.1002,3.0966,3.1029,3.1059,3.1066,3.1115,3.1122,3.1179,3.1134,3.1151,3.1199,3.1209,3.1282,3.12,3.1268,3.127,3.1257,3.1426,3.1453,3.1577,3.1371,3.1374,3.1376,0,3.0889,3.0932,3.1055,3.1082,3.1106,3.1162,3.1209,3.1257,3.1289,3.129,3.1323,3.1305,3.1375,3.1314,3.1409,3.1353,3.138,3.1389,3.1394,3.1398,3.1329,3.1433,3.1617,3.1635,3.1404,3.1401,3.1399,0,3.1009,3.1098,3.1182,3.1202,3.1236,3.1276,3.1292,3.1321,3.1353,3.1393,3.1413,3.1463,3.1489,3.1526,3.1521,3.1477,3.1618,3.1556,3.1619,3.1619,3.1649,3.1647,3.1837,3.167,3.167,3.167,3.1669,0,3.1164,3.124,3.1236,3.1287,3.137,3.1359,3.1441,3.1453,3.1478,3.153,3.1503,3.1552,3.1543,3.1592,3.1588,3.1666,3.1679,3.168,3.1678,3.1682,3.1681,3.1698,3.1689,3.1675,3.1674,3.1673,3.1672,0,3.1312,3.1313,3.1401,3.1426,3.1433,3.1493,3.1514,3.1561,3.1565,3.1631,3.1646,3.1652,3.1707,3.1706,3.177,3.1767,3.1862,3.1851,3.1851,3.1848,3.1909,3.1903,3.2116,3.2142,3.196,3.1962,3.1963,0,3.141,3.1467,3.1497,3.1529,3.1547,3.1601,3.1632,3.1622,3.1656,3.1695,3.1737,3.179,3.1832,3.1922,3.1932,3.1979,3.1968,3.2039,3.1975,3.1975,3.1965,3.1961,3.1965,3.2051,3.2053,3.2055,3.2056,0,3.1583,3.1579,3.1625,3.1671,3.1709,3.1745,3.1778,3.1806,3.1799,3.1838,3.1894,3.1926,3.1989,3.2041,3.2086,3.2102,3.2077,3.2076,3.2093,3.2096,3.2092,3.2092,3.1883,3.2071,3.207,3.2069,3.2068,3.2067,3.1707,3.1754,3.1782,3.1833,3.1856,3.1887,3.1932,3.194,3.1986,3.2037,3.2028,3.209,3.2117,3.2175,3.2194,3.2242,3.2216,3.2241,3.2247,3.2252,3.2258,3.2086,3.225,3.225,3.2249,3.2249,3.2249,0,3.1875,3.189,3.1938,3.1983,3.2023,3.1996,3.203,3.2065,3.212,3.2147,3.2188,3.225,3.23,3.2312,3.2359,3.2394,3.2384,3.2407,3.2403,3.2406,3.2279,3.2259,3.2414,3.2414,3.2414,3.2414,3.2414,3.2414,3.1968,3.2045,3.2045,3.2133,3.2147,3.2207,3.2228,3.2255,3.2277,3.2348,3.2388,3.2396,3.2416,3.2464,3.2507,3.2509,3.2527,3.2554,3.2551,3.2432,3.2416,3.24,3.238,3.2558,3.2558,3.2674,3.2675,3.2676]}]]